Hourly Weather Rushuha

Today, 22 April, Thursday

Time Temperature Precipitation Wind Pressure Humidity
00:00 +8°C° 0 mm 1 mps 622 mmHg 91%
01:00 +8°C° 0.1 mm 1 mps 622 mmHg 91%
02:00 +8°C° 0.1 mm 1 mps 622 mmHg 91%
03:00 +7°C° 0 mm 1 mps 621 mmHg 92%
04:00 +7°C° 0 mm 1 mps 622 mmHg 92%
05:00 +7°C° 0 mm 1 mps 622 mmHg 92%
06:00 +7°C° 0 mm 1 mps 622 mmHg 92%
07:00 +9°C° 0.1 mm 1 mps 622 mmHg 87%
08:00 +10°C° 0.1 mm 1 mps 622 mmHg 82%
09:00 +11°C° 0 mm 1 mps 623 mmHg 78%
10:00 +12°C° 0.1 mm 2 mps 623 mmHg 76%
11:00 +12°C° 0.1 mm 2 mps 623 mmHg 74%
12:00 +13°C° 0.1 mm 2 mps 623 mmHg 71%
13:00 +12°C° 0.1 mm 2 mps 623 mmHg 73%
14:00 +12°C° 0.1 mm 2 mps 623 mmHg 75%
15:00 +10°C° 0.1 mm 2 mps 622 mmHg 77%
16:00 +9°C° 0.3 mm 2 mps 622 mmHg 82%
17:00 +8°C° 0.3 mm 2 mps 622 mmHg 87%
18:00 +8°C° 0.3 mm 1 mps 622 mmHg 92%
19:00 +8°C° 0.2 mm 1 mps 622 mmHg 93%
20:00 +7°C° 0.2 mm 1 mps 622 mmHg 93%
21:00 +7°C° 0.2 mm 1 mps 622 mmHg 94%
22:00 +7°C° 0.1 mm 1 mps 622 mmHg 94%
23:00 +7°C° 0.1 mm 1 mps 621 mmHg 94%

Tomorrow, 23 April, Friday

Time Temperature Precipitation Wind Pressure Humidity
00:00 +7°C° 0.1 mm 1 mps 621 mmHg 95%
01:00 +7°C° 0.1 mm 1 mps 621 mmHg 94%
02:00 +6°C° 0.1 mm 1 mps 621 mmHg 94%
03:00 +6°C° 0.1 mm 1 mps 621 mmHg 94%
04:00 +6°C° 0.3 mm 1 mps 621 mmHg 94%
05:00 +4°C° 0.3 mm 2 mps 621 mmHg 95%
06:00 +4°C° 0.3 mm 2 mps 622 mmHg 95%
07:00 +4°C° 0.6 mm 2 mps 622 mmHg 95%
08:00 +3°C° 0.6 mm 2 mps 622 mmHg 95%
09:00 +2°C° 0.6 mm 3 mps 622 mmHg 95%
10:00 +2°C° 0.6 mm 3 mps 623 mmHg 92%
11:00 +3°C° 0.6 mm 3 mps 623 mmHg 90%
12:00 +3°C° 0.6 mm 3 mps 623 mmHg 87%
13:00 +5°C° 0 mm 3 mps 623 mmHg 79%
14:00 +7°C° 0 mm 3 mps 623 mmHg 70%
15:00 +8°C° 0 mm 2 mps 624 mmHg 61%
16:00 +7°C° 0 mm 2 mps 624 mmHg 64%
17:00 +7°C° 0 mm 2 mps 624 mmHg 67%
18:00 +8°C° 0 mm 1 mps 624 mmHg 70%
19:00 +7°C° 0 mm 1 mps 623 mmHg 73%
20:00 +6°C° 0 mm 1 mps 623 mmHg 76%
21:00 +5°C° 0 mm 1 mps 623 mmHg 79%
22:00 +4°C° 0 mm 1 mps 622 mmHg 77%
23:00 +3°C° 0 mm 2 mps 622 mmHg 76%

Day after tomorrow, 24 April, Saturday

Time Temperature Precipitation Wind Pressure Humidity
00:00 +3°C° 0 mm 2 mps 622 mmHg 75%
01:00 +3°C° 0 mm 2 mps 621 mmHg 73%
02:00 +3°C° 0 mm 2 mps 621 mmHg 72%
03:00 +3°C° 0 mm 2 mps 621 mmHg 71%
04:00 +3°C° 0 mm 2 mps 621 mmHg 69%
05:00 +4°C° 0 mm 2 mps 621 mmHg 68%
06:00 +4°C° 0 mm 2 mps 621 mmHg 67%
07:00 +7°C° 0 mm 1 mps 621 mmHg 61%
08:00 +9°C° 0 mm 1 mps 622 mmHg 54%
09:00 +10°C° 0 mm 0 mps 622 mmHg 48%
10:00 +12°C° 0 mm 1 mps 622 mmHg 47%
11:00 +13°C° 0 mm 2 mps 622 mmHg 45%
12:00 +14°C° 0 mm 2 mps 623 mmHg 44%
13:00 +14°C° 0 mm 2 mps 623 mmHg 47%
14:00 +14°C° 0 mm 2 mps 623 mmHg 49%
15:00 +14°C° 0 mm 2 mps 623 mmHg 52%
16:00 +13°C° 0 mm 2 mps 622 mmHg 58%
17:00 +12°C° 0 mm 2 mps 622 mmHg 64%
18:00 +11°C° 0 mm 1 mps 622 mmHg 71%
19:00 +10°C° 0 mm 1 mps 622 mmHg 74%
20:00 +9°C° 0 mm 1 mps 622 mmHg 77%
21:00 +8°C° 0 mm 1 mps 622 mmHg 81%
22:00 +8°C° 0 mm 1 mps 622 mmHg 81%
23:00 +7°C° 0 mm 1 mps 622 mmHg 82%

25 April, Sunday

Time Temperature Precipitation Wind Pressure Humidity
00:00 +7°C° 0 mm 1 mps 622 mmHg 83%
01:00 +7°C° 0 mm 1 mps 621 mmHg 83%
02:00 +5°C° 0 mm 0 mps 621 mmHg 83%
03:00 +5°C° 0 mm 0 mps 621 mmHg 84%
04:00 +6°C° 0 mm 0 mps 621 mmHg 83%
05:00 +6°C° 0 mm 0 mps 621 mmHg 81%
06:00 +6°C° 0 mm 0 mps 622 mmHg 80%
07:00 +9°C° 0 mm 1 mps 622 mmHg 73%
08:00 +11°C° 0 mm 1 mps 622 mmHg 66%
09:00 +12°C° 0 mm 1 mps 623 mmHg 59%
10:00 +13°C° 0 mm 2 mps 623 mmHg 57%
11:00 +14°C° 0 mm 2 mps 623 mmHg 55%
12:00 +15°C° 0 mm 2 mps 622 mmHg 53%
13:00 +15°C° 0 mm 2 mps 622 mmHg 53%
14:00 +15°C° 0 mm 2 mps 622 mmHg 54%
15:00 +15°C° 0 mm 2 mps 622 mmHg 54%
16:00 +15°C° 0 mm 2 mps 621 mmHg 58%
17:00 +14°C° 0 mm 2 mps 621 mmHg 63%
18:00 +13°C° 0 mm 1 mps 620 mmHg 67%
19:00 +12°C° 0 mm 1 mps 620 mmHg 71%
20:00 +11°C° 0 mm 1 mps 620 mmHg 75%
21:00 +10°C° 0 mm 1 mps 620 mmHg 79%
22:00 +9°C° 0 mm 1 mps 620 mmHg 79%
23:00 +9°C° 0 mm 1 mps 619 mmHg 79%

26 April, Monday

Time Temperature Precipitation Wind Pressure Humidity
00:00 +8°C° 0 mm 2 mps 619 mmHg 79%
01:00 +7°C° 0 mm 2 mps 619 mmHg 78%
02:00 +7°C° 0 mm 2 mps 618 mmHg 78%
03:00 +7°C° 0 mm 2 mps 618 mmHg 77%
04:00 +7°C° 0 mm 2 mps 618 mmHg 78%
05:00 +7°C° 0 mm 2 mps 618 mmHg 78%
06:00 +7°C° 0 mm 2 mps 618 mmHg 78%
07:00 +10°C° 0 mm 1 mps 619 mmHg 70%
08:00 +12°C° 0 mm 1 mps 619 mmHg 63%
09:00 +14°C° 0 mm 1 mps 620 mmHg 56%
10:00 +15°C° 0 mm 1 mps 620 mmHg 54%
11:00 +16°C° 0 mm 2 mps 620 mmHg 52%
12:00 +16°C° 0 mm 2 mps 620 mmHg 51%
13:00 +16°C° 0 mm 2 mps 620 mmHg 53%
14:00 +14°C° 0 mm 3 mps 620 mmHg 55%
15:00 +14°C° 0 mm 3 mps 619 mmHg 58%
16:00 +13°C° 0.1 mm 2 mps 619 mmHg 64%
17:00 +12°C° 0.1 mm 2 mps 619 mmHg 71%
18:00 +9°C° 0.1 mm 2 mps 619 mmHg 78%
19:00 +10°C° 0.2 mm 1 mps 619 mmHg 81%
20:00 +9°C° 0.2 mm 1 mps 619 mmHg 83%
21:00 +9°C° 0.2 mm 1 mps 619 mmHg 86%
22:00 +8°C° 0 mm 1 mps 619 mmHg 87%
23:00 +8°C° 0 mm 1 mps 619 mmHg 89%

27 April, Tuesday

Time Temperature Precipitation Wind Pressure Humidity
00:00 +8°C° 0 mm 1 mps 618 mmHg 90%
01:00 +8°C° 0.2 mm 1 mps 618 mmHg 91%
02:00 +7°C° 0.2 mm 1 mps 618 mmHg 91%
03:00 +7°C° 0.2 mm 1 mps 619 mmHg 92%
04:00 +7°C° 0.1 mm 1 mps 618 mmHg 92%
05:00 +7°C° 0.1 mm 1 mps 618 mmHg 93%
06:00 +7°C° 0.1 mm 1 mps 618 mmHg 94%
07:00 +8°C° 0.1 mm 1 mps 619 mmHg 91%
08:00 +8°C° 0.1 mm 1 mps 619 mmHg 89%
09:00 +9°C° 0.1 mm 1 mps 619 mmHg 87%
10:00 +9°C° 0.2 mm 1 mps 619 mmHg 87%
11:00 +8°C° 0.2 mm 2 mps 619 mmHg 87%
12:00 +8°C° 0.2 mm 2 mps 619 mmHg 88%
13:00 +7°C° 1.2 mm 2 mps 619 mmHg 89%
14:00 +6°C° 1.2 mm 2 mps 619 mmHg 91%
15:00 +6°C° 1.2 mm 2 mps 619 mmHg 92%
16:00 +5°C° 0.5 mm 2 mps 619 mmHg 93%
17:00 +5°C° 0.5 mm 2 mps 619 mmHg 94%
18:00 +4°C° 0.5 mm 2 mps 620 mmHg 95%
19:00 +5°C° 0.3 mm 1 mps 620 mmHg 95%
20:00 +5°C° 0.3 mm 1 mps 620 mmHg 95%
21:00 +5°C° 0.3 mm 1 mps 620 mmHg 95%
22:00 +4°C° 0.2 mm 1 mps 620 mmHg 96%
23:00 +4°C° 0.2 mm 1 mps 620 mmHg 96%
Show more